Regional Weather Roundup
Issued by NWS

Home | Current Version | Previous Version | Text Only | Print | Product List | Glossary On
Versions: 1 2 3 4 5 6 7 8 9 10 11 12 13 14 15 16 17 18 19 20 21 22 23 24 25 26 27 28 29 30 31 32 33 34 35 36 37 38 39 40 41 42 43 44 45 46 47 48 49 50
000
ASUS42 KFFC 212003
RWRGA
WEATHER ROUNDUP FOR GEORGIA
NATIONAL WEATHER SERVICE PEACHTREE CITY GA
400 PM EDT THU AUG 21 2014

NOTE: "FAIR" INDICATES FEW OR NO CLOUDS BELOW 12,000 FEET WITH NO
SIGNIFICANT WEATHER AND/OR OBSTRUCTIONS TO VISIBILITY.

* = USE WITH CAUTION. THE STATIONS MARKED WITH AN ASTERISK MAY NOT
REPORT WEATHER SUCH AS PRECIPITATION, FOG, OR THUNDER AND ARE NOT
QUALITY CONTROLLED BY NWS.

THE REMARK "TC" DENOTES TEMPERATURE READING IN DEGREES CELSIUS.

GAZ001>058-212100-
NORTH GEORGIA

CITY           SKY/WX    TMP DP  RH WIND       PRES   REMARKS
ATLANTA        MOSUNNY   91  70  49 NW8       30.12F HX  96
ATHENS         MOSUNNY   93  68  43 N5        30.09F HX  97
CHAMBLEE       MOSUNNY   92  69  47 NW9       30.12F HX  97
PEACHTREE CITY HVY RAIN  77  71  82 SW8       30.15R VSB 3/4
ROME           MOSUNNY   87  72  60 SW3       30.11F HX  93
WEST ATLANTA   MOSUNNY   91  71  51 N7        30.11F HX  97
GAINESVILLE    PTSUNNY   87  70  56 W8        30.15F HX  92
CARTERSVILLE   MOSUNNY   92  69  47 VRB3      30.11F HX  97


CITY           SKY/WX    TMP DP  RH WIND       PRES   REMARKS
DALTON*        PTSUNNY   90  73  58 CALM      30.11F HX  98
LAWRENCEVILLE* MOSUNNY   93  66  40 NW8       30.11F HX  96
MARIETTA       MOSUNNY   90  72  55 NW8       30.13F HX  96
KENNESAW*      MOSUNNY   88  70  55 NW3       30.14F HX  92
$$

GAZ059>098-102>109-212100-
CENTRAL GEORGIA

CITY           SKY/WX    TMP DP  RH WIND       PRES   REMARKS
AUGUSTA-BUSH   SUNNY     98  65  33 NE7       30.04F HX 101
AUGUSTA-DANIEL SUNNY     98  62  30 N6        30.06F HX  99
COLUMBUS       MOSUNNY   91  69  48 W7        30.08F HX  96
MACON          MOSUNNY   96  67  38 VRB5      30.07F HX 100
ROBINS AFB     SUNNY     97  69  40 N7        30.06F HX 103


CITY           SKY/WX    TMP DP  RH WIND       PRES   REMARKS
LAGRANGE*      MOSUNNY   82  74  76 CALM      30.12F
SYLVANIA*      SUNNY     97  69  40 NW6       30.05F HX 103
MILLEDGEVILLE* SUNNY     99  73  44 NW6       30.07F HX 109
$$

GAZ099>101-110>166-212100-
SOUTH GEORGIA

CITY           SKY/WX    TMP DP  RH WIND       PRES   REMARKS
SAVANNAH       MOSUNNY   97  70  41 NW12      30.04F HX 103
VALDOSTA       MOSUNNY   97  69  40 N7        30.05F HX 103
ALMA           SUNNY     96  70  42 NW8       30.05F HX 102
ST SIMONS      SUNNY     97  68  38 NW7       30.03F HX 102
FT STEWART     SUNNY     96  69  40 NW8       30.03F HX 102
ALBANY         LGT RAIN  75  72  90 W8        30.10S FOG
HUNTER AFB     SUNNY     96  72  45 NW9       30.02F HX 104
MOODY AFB      SUNNY     95  70  43 N7        30.06F HX 101
BRUNSWICK      SUNNY     97  66  36 W7        30.04F HX 100


CITY           SKY/WX    TMP DP  RH WIND       PRES   REMARKS
BAINBRIDGE*    SUNNY     99  75  47 NW8       30.05F HX 111
MOULTRIE*      PTSUNNY   93  70  46 N12G18    30.08F HX  99
VIDALIA*         N/A     97  68  38 N6        30.06F HX 101
WAYCROSS*      SUNNY     99  72  41 W7        30.05F HX 108
DOUGLAS*       SUNNY     99  66  34 N9        30.07F HX 102
$$


USA.gov is the U.S. government's official web portal to all federal, state and local government web resources and services.